Location: Kellogg
(38.0159°N, 90.0546°W)
Time: 21:59:18
(UTC+00:00)

Transit 4A - Pass Details

Date: 15 September 2024
Orbit: 864 x 978 km, 66.8° (Epoch: 12 October)

Event Time Altitude Azimuth Distance (km) Brightness Sun altitude
Rises 18:57:26 0° 320° (NW) 3,621 10.8 51.8°
Reaches altitude 10° 19:00:16 10° 310° (NW) 2,688 10.3 51.6°
Maximum altitude 19:05:35 30° 252° (WSW) 1,667 10.2 51.1°
Drops below altitude 10° 19:10:58 10° 194° (SSW) 2,713 11.2 50.6°
Sets 19:13:50 0° 184° (S) 3,660 11.5 50.3°
